Weather Roundup
Issued by NWS Corpus Christi, TX

Home | Current Version | Previous Version | Text Only | Print | Product List | Glossary On
Versions: 1 2 3 4 5 6 7 8 9 10 11 12 13 14 15 16 17 18 19 20 21 22 23 24 25 26 27 28 29 30 31 32 33 34 35 36 37 38 39 40 41 42 43 44 45 46 47 48 49 50
000
ASUS44 KCRP 052010
HRRCRP

SOUTH TEXAS REGIONAL WEATHER ROUNDUP
NATIONAL WEATHER SERVICE CORPUS CHRISTI TX
200 PM CST THU MAR 05 2015


TXZ229>244-052100-
...CORPUS CHRISTI AREA OBSERVATIONS...

CITY           SKY/WX    TMP DP  RH WIND       PRES   REMARKS
CORPUS CHRISTI PTSUNNY   50  36  58 N24       30.45F
NAS CORPUS CHR PTSUNNY   49  37  63 N24G32    30.44F
ROCKPORT       PTSUNNY   50  33  52 N21G26    30.45F
KINGSVILLE NAS PTSUNNY   50  37  61 N25G31    30.46F
ALICE          PTSUNNY   49  33  54 N22G30    30.47F
FALFURRIAS     PTSUNNY   49  32  53 N16G26    30.47F
$$

...VICTORIA AREA OBSERVATIONS...

CITY           SKY/WX    TMP DP  RH WIND       PRES   REMARKS
VICTORIA       MOSUNNY   48  34  58 N22G29    30.47F
BEEVILLE       CLOUDY    47  33  58 N15G24    30.48F
PLEASANTON     SUNNY     49  24  37 N15G21    30.51F
SAN ANTONIO    MOSUNNY   47  21  35 N21G28    30.49F
$$

...LAREDO AREA OBSERVATIONS...

CITY           SKY/WX    TMP DP  RH WIND       PRES   REMARKS
LAREDO         PTSUNNY   49  31  50 N18G29    30.52F
COTULLA        CLOUDY    49  29  46 N15G22    30.53F
DEL RIO        SUNNY     46  22  38 N8        30.56F
MCALLEN        CLOUDY    51  34  52 NW23G30   30.45F
HEBBRONVILLE   PTSUNNY  N/A N/A N/A N21G28    30.48F
$$

...OTHER TEXAS OBSERVATIONS...

CITY           SKY/WX    TMP DP  RH WIND       PRES   REMARKS
BROWNSVILLE    CLOUDY    44  35  70 N20G26    30.43F
HOUSTON        PTSUNNY   48  31  51 N22G29    30.43F
COL. STATION   MOSUNNY   42  28  57 N13G22    30.50F
AUSTIN         MOSUNNY   44  22  41 N23G31    30.51F
WACO           SUNNY     39  22  50 N21       30.57F WCI  29
FORT WORTH     SUNNY     34  19  54 NE7       30.58F
WICHITA FALLS  SUNNY     39  18  42 CALM      30.57F
LUBBOCK        MOSUNNY   36  17  46 SW12      30.47F WCI  28
EL PASO        MOSUNNY   44  23  43 E6        30.41F
$$

...MARINE OBSERVATIONS...

STATION/POSITION TIME  SKY/WX   TEMP    WIND        PRES    VSBY  WAVE   SWELL
                                AIR SEA DIR/SP/G                  HT/PER HT/PER
                 (UTC)          (F)     (DEG/KT/KT) (MB)    (MI)  (FT/S) (FT/S)
PORT ARANSAS     2000            45 56  330/ 20/ 27 1030.6F
BUOY 90 E PORT A 2000            49 67   10/ 25/ 33 1027.1F        11/ 8
BUOY 45 SE BAFFI 2000            47 65  360/ 25/ 31 1028.7F        11/ 9   5/ 9
BUOY 200 E PT IS 2000            62 70   10/ 27/ 33 1020.5R        13/ 8
BUOY 15 E GALVES 2000            40 58   10/ 25/ 33 1027.5F         6/ 6
$$



USA.gov is the U.S. government's official web portal to all federal, state and local government web resources and services.